Truckee, CA

12:26 PM PDT on August 27, 2016 (GMT -0700)
Truckee-Tahoe

Weather History for KTRK - October, 2013

Change the Weather History Date:

Friday, October 25, 2013

  Actual Average Record
Temperature  
Mean Temperature 44 °F -  
Max Temperature 66 °F 59 °F 80 °F (1959)
Min Temperature 21 °F 27 °F 9 °F (1956)
Degree Days  
Heating Degree Days 22    
Moisture  
Dew Point 16 °F    
Average Humidity 50    
Maximum Humidity 80    
Minimum Humidity 11    
Precipitation  
Precipitation 0.00 in - - ()
Sea Level Pressure  
Sea Level Pressure 30.33 in    
Wind  
Wind Speed 1 mph (SSW)    
Max Wind Speed 8 mph    
Max Gust Speed -    
Visibility 10 miles    
Events      
Averages and records for this station are not official NWS values.
T = Trace of Precipitation, MM = Missing Value Source: NWS Daily Summary

Daily Weather History Graph

Daily Weather History Graph

Search for Another Location

Airport or City:

Trip Planner

Search our weather history database for the weather conditions in past years. The results will help you decide how hot, cold, wet, or windy it might be!

Date:

Astronomy

Oct. 25, 2013 Rise Set
Actual Time 7:21 AM PDT 6:07 PM PDT
Civil Twilight 6:53 AM PDT 6:34 PM PDT
Nautical Twilight 6:22 AM PDT 7:06 PM PDT
Astronomical Twilight 5:51 AM PDT 7:37 PM PDT
Moon 11:32 PM PDT (10/25) 1:04 PM PDT (10/25)
Length of Visible Light 11h 41m
Length of Day
10h 46m
Waning Gibbous, 61% of the Moon is Illuminated
Oct 25
Waning Gibbous
Oct 26
Last Quarter
Nov 3
New
Nov 9
First Quarter
Nov 17
Full

Hourly Weather History & Observations

Time (PDT) Temp. Windchill Dew Point Humidity Pressure Visibility Wind Dir Wind Speed Gust Speed Precip Events Conditions
12:15 AM 28.4 °F - 14.0 °F 55% 30.29 in 10.0 mi Calm Calm - N/A   Clear
12:35 AM 28.4 °F - 15.8 °F 59% 30.30 in 10.0 mi Calm Calm - N/A   Clear
12:55 AM 30.2 °F - 14.0 °F 51% 30.30 in 10.0 mi Calm Calm - N/A   Clear
1:15 AM 28.4 °F - 15.8 °F 59% 30.30 in 10.0 mi Calm Calm - N/A   Clear
1:35 AM 30.2 °F - 15.8 °F 55% 30.30 in 10.0 mi Calm Calm - N/A   Clear
1:55 AM 28.4 °F - 15.8 °F 59% 30.30 in 10.0 mi Calm Calm - N/A   Clear
2:15 AM 26.6 °F - 15.8 °F 64% 30.31 in 10.0 mi Calm Calm - N/A   Clear
2:35 AM 26.6 °F - 15.8 °F 64% 30.31 in 10.0 mi Calm Calm - N/A   Clear
2:55 AM 28.4 °F - 15.8 °F 59% 30.31 in 10.0 mi Calm Calm - N/A   Clear
3:15 AM 24.8 °F - 15.8 °F 69% 30.31 in 10.0 mi Calm Calm - N/A   Clear
3:35 AM 24.8 °F - 15.8 °F 69% 30.31 in 10.0 mi Calm Calm - N/A   Clear
3:55 AM 24.8 °F - 15.8 °F 69% 30.31 in 10.0 mi Calm Calm - N/A   Clear
4:15 AM 24.8 °F - 15.8 °F 69% 30.32 in 10.0 mi Calm Calm - N/A   Clear
4:35 AM 24.8 °F - 15.8 °F 69% 30.32 in 10.0 mi Calm Calm - N/A   Clear
4:55 AM 24.8 °F - 15.8 °F 69% 30.32 in 10.0 mi Calm Calm - N/A   Clear
5:15 AM 24.8 °F - 15.8 °F 69% 30.32 in 10.0 mi Calm Calm - N/A   Clear
5:35 AM 24.8 °F - 15.8 °F 69% 30.33 in 10.0 mi Calm Calm - N/A   Clear
5:55 AM 21.2 °F - 15.8 °F 80% 30.33 in 10.0 mi Calm Calm - N/A   Clear
6:15 AM 23.0 °F - 15.8 °F 74% 30.34 in 10.0 mi Calm Calm - N/A   Clear
6:35 AM 23.0 °F - 15.8 °F 74% 30.34 in 10.0 mi Calm Calm - N/A   Clear
6:45 AM 21.2 °F - 14.0 °F 74% 30.34 in 10.0 mi Calm Calm - N/A   Clear
7:45 AM 21.2 °F - 14.0 °F 74% 30.36 in 10.0 mi Calm Calm - N/A   Clear
8:45 AM 28.4 °F - 17.6 °F 64% 30.37 in - Calm Calm - N/A   Clear
9:55 AM 37.4 °F - 17.6 °F 45% 30.37 in 10.0 mi Calm Calm - N/A   Clear
10:55 AM 46.4 °F - 19.4 °F 34% 30.36 in 10.0 mi Calm Calm - N/A   Clear
11:45 AM 53.6 °F - 19.4 °F 26% 30.35 in 10.0 mi Calm Calm - N/A   Clear
12:45 PM 62.6 °F - 12.2 °F 14% 30.33 in 10.0 mi Calm Calm - N/A   Clear
1:50 PM 64.4 °F - 8.6 °F 11% 30.30 in 10.0 mi South 3.5 mph - N/A   Clear
2:45 PM 66.2 °F - 10.4 °F 11% 30.29 in 10.0 mi SW 4.6 mph - N/A   Clear
3:50 PM 66.2 °F - 10.4 °F 11% 30.29 in 10.0 mi NW 4.6 mph - N/A   Clear
5:45 PM 62.6 °F - 19.4 °F 19% 30.29 in 10.0 mi West 8.1 mph - N/A   Clear
5:55 PM 59.0 °F - 19.4 °F 22% 30.30 in 10.0 mi WNW 6.9 mph - N/A   Clear
6:15 PM 57.2 °F - 19.4 °F 23% 30.30 in 10.0 mi East 3.5 mph - N/A   Clear
6:35 PM 48.2 °F - 15.8 °F 27% 30.31 in 10.0 mi South 3.5 mph - N/A   Clear
6:55 PM 46.4 °F 43.5 °F 17.6 °F 32% 30.31 in 10.0 mi SSE 5.8 mph - N/A   Clear
7:15 PM 44.6 °F - 17.6 °F 34% 30.32 in 10.0 mi Calm Calm - N/A   Clear
7:35 PM 42.8 °F 39.3 °F 17.6 °F 36% 30.32 in 10.0 mi SSE 5.8 mph - N/A   Clear
7:55 PM 39.2 °F 37.0 °F 17.6 °F 42% 30.33 in 10.0 mi South 3.5 mph - N/A   Clear
8:15 PM 41.0 °F 39.0 °F 19.4 °F 42% 30.33 in 10.0 mi South 3.5 mph - N/A   Clear
8:35 PM 39.2 °F 37.0 °F 19.4 °F 45% 30.33 in 10.0 mi SW 3.5 mph - N/A   Clear
8:55 PM 41.0 °F 39.0 °F 19.4 °F 42% 30.33 in 10.0 mi South 3.5 mph - N/A   Clear
9:15 PM 37.4 °F - 19.4 °F 48% 30.34 in 10.0 mi Calm Calm - N/A   Clear
9:35 PM 35.6 °F - 19.4 °F 52% 30.34 in 10.0 mi Calm Calm - N/A   Clear
9:55 PM 35.6 °F - 17.6 °F 48% 30.35 in 10.0 mi Calm Calm - N/A   Clear
10:15 PM 35.6 °F - 19.4 °F 52% 30.35 in 10.0 mi Calm Calm - N/A   Clear
10:35 PM 32.0 °F - 17.6 °F 55% 30.35 in 6.0 mi Calm Calm - N/A   Haze
10:55 PM 33.8 °F - 17.6 °F 52% 30.35 in 10.0 mi Calm Calm - N/A   Clear
11:15 PM 33.8 °F - 17.6 °F 52% 30.36 in 10.0 mi Calm Calm - N/A   Clear
11:35 PM 32.0 °F - 17.6 °F 55% 30.36 in 5.0 mi Calm Calm - N/A   Haze
11:55 PM 32.0 °F - 17.6 °F 55% 30.36 in 9.0 mi Calm Calm - N/A   Clear